KF7U Weather Reports


time (UTC)temp
C
wind
direction
speed
KPH
gust
KPH
rain 1hr
cm
rain 24hr
cm
rain mn
cm
humidity
%
barometer
mb
20260507172235 29 183 4.8 12.9 0.00 0.00 0.00 17 1011.9
20260507171735 29 207 4.8 9.7 0.00 0.00 0.00 17 1011.9
20260507171235 30 214 3.2 6.4 0.00 0.00 0.00 19 1011.9
20260507170734 29 244 0.0 6.4 0.00 0.00 0.00 19 1012.2
20260507170235 28 235 4.8 8.0 0.00 0.00 0.00 18 1012.2
20260507165735 28 234 4.8 12.9 0.00 0.00 0.00 19 1012.2
20260507165235 28 253 3.2 9.7 0.00 0.00 0.00 20 1012.2
20260507164734 28 291 3.2 9.7 0.00 0.00 0.00 20 1012.2
20260507164235 28 139 3.2 9.7 0.00 0.00 0.00 21 1012.2
20260507163734 27 272 3.2 8.0 0.00 0.00 0.00 21 1012.2
20260507163235 27 209 4.8 9.7 0.00 0.00 0.00 22 1012.2
20260507162736 27 65 3.2 8.0 0.00 0.00 0.00 22 1012.2
20260507162235 27 225 4.8 9.7 0.00 0.00 0.00 22 1012.2
20260507161735 27 222 4.8 11.3 0.00 0.00 0.00 22 1012.2
20260507161235 27 276 3.2 9.7 0.00 0.00 0.00 22 1012.5
20260507160735 27 167 0.0 4.8 0.00 0.00 0.00 23 1012.5
20260507160235 26 254 1.6 6.4 0.00 0.00 0.00 23 1012.5
20260507155735 26 227 3.2 6.4 0.00 0.00 0.00 23 1012.5
20260507155234 26 151 1.6 4.8 0.00 0.00 0.00 24 1012.5
20260507154735 26 81 3.2 8.0 0.00 0.00 0.00 25 1012.5
20260507154235 25 207 0.0 4.8 0.00 0.00 0.00 25 1012.5
20260507153734 25 66 1.6 6.4 0.00 0.00 0.00 25 1012.5
20260507153235 25 166 1.6 6.4 0.00 0.00 0.00 25 1012.5
20260507152737 25 170 1.6 6.4 0.00 0.00 0.00 25 1012.5
20260507152235 25 95 1.6 4.8 0.00 0.00 0.00 26 1012.5
20260507151734 24 188 1.6 6.4 0.00 0.00 0.00 26 1012.5
20260507151235 23 140 1.6 6.4 0.00 0.00 0.00 27 1012.5
20260507150737 23 190 3.2 6.4 0.00 0.00 0.00 27 1012.5
20260507150235 23 234 3.2 4.8 0.00 0.00 0.00 28 1012.5
20260507145734 22 146 0.0 3.2 0.00 0.00 0.00 29 1012.5
20260507145235 22 218 1.6 6.4 0.00 0.00 0.00 30 1012.5
20260507144735 22 126 0.0 4.8 0.00 0.00 0.00 31 1012.5
20260507144235 21 191 1.6 4.8 0.00 0.00 0.00 31 1012.5
20260507143742 21 182 0.0 3.2 0.00 0.00 0.00 32 1012.5
20260507143234 21 178 0.0 4.8 0.00 0.00 0.00 33 1012.5
20260507142737 21 240 1.6 4.8 0.00 0.00 0.00 33 1012.5
20260507142235 20 151 1.6 4.8 0.00 0.00 0.00 33 1012.5
20260507141735 20 155 1.6 4.8 0.00 0.00 0.00 34 1012.5
20260507141234 19 199 1.6 4.8 0.00 0.00 0.00 34 1012.5
20260507140734 19 167 1.6 4.8 0.00 0.00 0.00 35 1012.5
20260507140236 19 197 0.0 4.8 0.00 0.00 0.00 37 1012.5
20260507135235 18 122 0.0 4.8 0.00 0.00 0.00 38 1012.2
20260507134735 18 142 0.0 0.0 0.00 0.00 0.00 39 1012.2
20260507134234 17 120 0.0 0.0 0.00 0.00 0.00 40 1012.2
20260507133735 17 137 0.0 3.2 0.00 0.00 0.00 41 1012.2
20260507133236 16 52 1.6 4.8 0.00 0.00 0.00 41 1012.2
20260507132735 16 64 1.6 4.8 0.00 0.00 0.00 43 1012.2
20260507132236 16 358 1.6 6.4 0.00 0.00 0.00 44 1012.2
20260507131735 15 333 0.0 0.0 0.00 0.00 0.00 46 1012.2
20260507131237 15 66 0.0 1.6 0.00 0.00 0.00 45 1012.2
20260507130735 15 215 1.6 6.4 0.00 0.00 0.00 45 1012.2
20260507130237 15 34 0.0 4.8 0.00 0.00 0.00 45 1011.9
20260507125734 15 354 0.0 0.0 0.00 0.00 0.00 44 1011.9
20260507125235 16 82 0.0 0.0 0.00 0.00 0.00 44 1011.9
20260507124734 16 207 0.0 0.0 0.00 0.00 0.00 44 1011.9
20260507124234 16 279 0.0 3.2 0.00 0.00 0.00 44 1011.9
20260507123734 16 137 1.6 6.4 0.00 0.00 0.00 44 1011.9
20260507123235 16 170 0.0 3.2 0.00 0.00 0.00 44 1011.9
20260507122734 16 337 0.0 6.4 0.00 0.00 0.00 44 1011.9
20260507122235 16 327 0.0 0.0 0.00 0.00 0.00 42 1011.9
20260507121736 16 308 0.0 1.6 0.00 0.00 0.00 42 1011.5
20260507121235 16 27 0.0 3.2 0.00 0.00 0.00 41 1011.5
20260507120735 16 135 1.6 4.8 0.00 0.00 0.00 41 1011.9
20260507120236 16 326 0.0 4.8 0.00 0.00 0.00 42 1011.5
20260507115734 16 97 0.0 3.2 0.00 0.00 0.00 41 1011.9
20260507115235 16 358 0.0 1.6 0.00 0.00 0.00 41 1011.5
20260507114735 16 72 0.0 0.0 0.00 0.00 0.00 41 1011.5
20260507114234 17 8 0.0 0.0 0.00 0.00 0.00 41 1011.5
20260507113734 17 90 0.0 0.0 0.00 0.00 0.00 39 1011.5
20260507113234 17 35 0.0 0.0 0.00 0.00 0.00 39 1011.9
20260507112734 17 128 0.0 3.2 0.00 0.00 0.00 38 1011.9
20260507112234 18 63 0.0 0.0 0.00 0.00 0.00 37 1011.9
20260507111735 18 88 0.0 1.6 0.00 0.00 0.00 36 1011.5
20260507111234 18 334 0.0 1.6 0.00 0.00 0.00 35 1011.5
20260507110736 18 308 3.2 6.4 0.00 0.00 0.00 35 1011.5
20260507110234 18 304 1.6 6.4 0.00 0.00 0.00 35 1011.5
20260507105736 18 15 3.2 6.4 0.00 0.00 0.00 35 1011.5
20260507105234 18 326 3.2 9.7 0.00 0.00 0.00 35 1011.5
20260507104734 18 271 1.6 4.8 0.00 0.00 0.00 34 1011.5
20260507104235 18 77 1.6 6.4 0.00 0.00 0.00 34 1011.5
20260507103735 18 300 0.0 6.4 0.00 0.00 0.00 35 1011.9
20260507103235 18 284 3.2 8.0 0.00 0.00 0.00 34 1011.9
20260507102736 18 331 6.4 9.7 0.00 0.00 0.00 34 1011.9
20260507102235 18 319 6.4 9.7 0.00 0.00 0.00 34 1011.9
20260507101735 18 354 6.4 9.7 0.00 0.00 0.00 34 1011.9
20260507101235 18 339 6.4 11.3 0.00 0.00 0.00 34 1011.9
20260507100735 18 329 6.4 9.7 0.00 0.00 0.00 34 1011.9
20260507100234 18 345 6.4 9.7 0.00 0.00 0.00 34 1012.2
20260507095735 18 341 8.0 12.9 0.00 0.00 0.00 33 1012.2
20260507095234 18 352 8.0 11.3 0.00 0.00 0.00 33 1012.2
20260507094734 18 337 6.4 11.3 0.00 0.00 0.00 34 1012.2
20260507094235 18 315 6.4 11.3 0.00 0.00 0.00 34 1012.2
20260507093734 18 311 6.4 11.3 0.00 0.00 0.00 33 1012.2
20260507093234 18 329 6.4 9.7 0.00 0.00 0.00 34 1012.5
20260507092734 18 313 4.8 8.0 0.00 0.00 0.00 34 1012.5
20260507092235 18 1 1.6 6.4 0.00 0.00 0.00 35 1012.5
20260507091735 18 6 1.6 4.8 0.00 0.00 0.00 35 1012.5
20260507091234 18 356 1.6 4.8 0.00 0.00 0.00 35 1012.5
20260507090734 18 317 1.6 4.8 0.00 0.00 0.00 35 1012.5
20260507090235 18 317 1.6 4.8 0.00 0.00 0.00 34 1012.5
20260507085734 18 310 1.6 6.4 0.00 0.00 0.00 34 1012.5
20260507085235 18 323 1.6 4.8 0.00 0.00 0.00 34 1012.5
20260507084736 19 1 0.0 3.2 0.00 0.00 0.00 33 1012.9
20260507084235 19 305 1.6 4.8 0.00 0.00 0.00 33 1012.5
20260507083734 19 337 3.2 4.8 0.00 0.00 0.00 33 1012.9
20260507083234 18 332 1.6 4.8 0.00 0.00 0.00 34 1012.9
20260507082736 17 51 0.0 3.2 0.00 0.00 0.00 37 1012.9
20260507082234 16 321 0.0 3.2 0.00 0.00 0.00 41 1012.9
20260507081735 16 59 0.0 0.0 0.00 0.00 0.00 43 1012.9
20260507081234 16 50 0.0 0.0 0.00 0.00 0.00 42 1012.9
20260507080735 17 60 0.0 0.0 0.00 0.00 0.00 40 1012.9
20260507080235 17 133 0.0 0.0 0.00 0.00 0.00 40 1012.9
20260507075734 17 117 0.0 0.0 0.00 0.00 0.00 41 1012.9
20260507075234 17 185 0.0 0.0 0.00 0.00 0.00 37 1012.9
20260507074736 18 76 0.0 0.0 0.00 0.00 0.00 39 1013.2
20260507074234 18 96 0.0 0.0 0.00 0.00 0.00 40 1012.9
20260507073735 18 67 0.0 0.0 0.00 0.00 0.00 38 1012.9
20260507073234 18 52 0.0 0.0 0.00 0.00 0.00 35 1012.9
20260507072735 18 36 0.0 0.0 0.00 0.00 0.00 35 1012.9
20260507072235 19 319 0.0 0.0 0.00 0.00 0.00 34 1012.9
20260507071734 19 20 0.0 0.0 0.00 0.00 0.00 34 1012.9
20260507071234 19 33 0.0 0.0 0.00 0.00 0.00 34 1012.9
20260507070736 19 32 0.0 0.0 0.00 0.00 0.00 34 1012.9
20260507070234 19 40 0.0 3.2 0.00 0.00 0.00 34 1012.9
20260507065735 19 47 0.0 0.0 0.00 0.00 0.00 35 1013.2
20260507065234 19 67 0.0 0.0 0.00 0.00 0.00 36 1012.9
20260507064735 19 68 0.0 0.0 0.00 0.00 0.00 36 1012.9
20260507064235 19 43 0.0 1.6 0.00 0.00 0.00 37 1012.9
20260507063734 19 40 0.0 1.6 0.00 0.00 0.00 36 1012.9
20260507063234 19 55 0.0 0.0 0.00 0.00 0.00 37 1012.9
20260507062734 19 87 0.0 0.0 0.00 0.00 0.00 35 1012.9
20260507062234 20 83 0.0 0.0 0.00 0.00 0.00 34 1012.9
20260507061735 20 33 0.0 0.0 0.00 0.00 0.00 34 1012.9
20260507061236 20 58 0.0 3.2 0.00 0.00 0.00 34 1012.9
20260507060734 19 18 0.0 3.2 0.00 0.00 0.00 35 1012.9
20260507060234 18 3 1.6 4.8 0.00 0.00 0.00 36 1012.9
20260507055734 18 2 0.0 3.2 0.00 0.00 0.00 38 1012.9
20260507054734 18 39 0.0 1.6 0.00 0.00 0.00 39 1012.9
20260507054234 19 17 0.0 0.0 0.00 0.00 0.00 40 1013.2
20260507053735 19 43 0.0 0.0 0.00 0.00 0.00 40 1012.9
20260507053234 20 63 0.0 0.0 0.00 0.00 0.00 38 1012.9
20260507052734 20 81 0.0 0.0 0.00 0.00 0.00 37 1012.9
20260507052234 20 54 0.0 1.6 0.00 0.00 0.00 36 1012.9
20260507051734 20 40 1.6 4.8 0.00 0.00 0.00 37 1012.9
20260507051234 20 42 1.6 4.8 0.00 0.00 0.00 37 1012.9
20260507050734 19 33 0.0 3.2 0.00 0.00 0.00 39 1012.9
20260507050235 19 43 0.0 1.6 0.00 0.00 0.00 41 1012.9
20260507045734 19 66 0.0 1.6 0.00 0.00 0.00 42 1012.9
20260507045234 19 329 0.0 0.0 0.00 0.00 0.00 43 1012.9
20260507044735 19 51 0.0 0.0 0.00 0.00 0.00 45 1012.9
20260507044235 19 39 0.0 0.0 0.00 0.00 0.00 45 1012.9
20260507043734 20 51 0.0 0.0 0.00 0.00 0.00 44 1012.9
20260507042235 20 70 0.0 0.0 0.00 0.00 0.00 40 1012.5
20260507041734 20 57 0.0 0.0 0.00 0.00 0.00 40 1012.5
20260507041236 20 85 0.0 0.0 0.00 0.00 0.00 39 1012.5
20260507040735 20 29 0.0 0.0 0.00 0.00 0.00 38 1012.5
20260507040237 21 36 0.0 0.0 0.00 0.00 0.00 37 1012.5
20260507035734 21 44 0.0 0.0 0.00 0.00 0.00 38 1012.2
20260507035234 21 46 0.0 0.0 0.00 0.00 0.00 37 1012.2
20260507034734 21 43 0.0 0.0 0.00 0.00 0.00 37 1012.2
20260507034235 21 30 0.0 0.0 0.00 0.00 0.00 37 1012.2
20260507033734 21 25 0.0 0.0 0.00 0.00 0.00 36 1012.2
20260507033234 21 43 0.0 0.0 0.00 0.00 0.00 34 1011.9
20260507032734 21 32 0.0 0.0 0.00 0.00 0.00 36 1011.9
20260507032234 21 53 0.0 0.0 0.00 0.00 0.00 35 1011.9
20260507031734 22 23 0.0 0.0 0.00 0.00 0.00 34 1011.9
20260507031235 22 34 0.0 0.0 0.00 0.00 0.00 33 1011.5
20260507030734 22 50 0.0 0.0 0.00 0.00 0.00 33 1011.5
20260507030235 22 16 0.0 0.0 0.00 0.00 0.00 33 1011.5
20260507025734 22 55 0.0 0.0 0.00 0.00 0.00 31 1011.5
20260507025234 23 21 0.0 0.0 0.00 0.00 0.00 31 1011.5
20260507024734 23 60 0.0 0.0 0.00 0.00 0.00 28 1011.2
20260507024234 23 69 0.0 0.0 0.00 0.00 0.00 27 1011.2
20260507023735 24 101 0.0 0.0 0.00 0.00 0.00 27 1011.2
20260507023234 24 290 0.0 0.0 0.00 0.00 0.00 26 1011.2
20260507022734 25 177 0.0 0.0 0.00 0.00 0.00 25 1011.2
20260507022236 25 267 0.0 4.8 0.00 0.00 0.00 25 1011.2
20260507021735 25 68 1.6 4.8 0.00 0.00 0.00 24 1010.8
20260507021235 25 226 1.6 6.4 0.00 0.00 0.00 24 1011.2
20260507020735 25 156 0.0 4.8 0.00 0.00 0.00 24 1011.2
20260507020234 26 206 1.6 6.4 0.00 0.00 0.00 23 1010.8
20260507015735 26 202 3.2 6.4 0.00 0.00 0.00 23 1010.8
20260507015234 26 205 1.6 4.8 0.00 0.00 0.00 22 1010.8
20260507014735 26 217 1.6 6.4 0.00 0.00 0.00 22 1010.8
20260507014234 26 282 4.8 11.3 0.00 0.00 0.00 22 1010.8
20260507013736 27 244 4.8 11.3 0.00 0.00 0.00 21 1010.8
20260507013234 27 251 3.2 6.4 0.00 0.00 0.00 22 1010.8
20260507012734 27 196 3.2 9.7 0.00 0.00 0.00 21 1010.8
20260507012234 27 229 4.8 9.7 0.00 0.00 0.00 21 1010.8
20260507011734 27 226 3.2 14.5 0.00 0.00 0.00 21 1010.8
20260507011235 27 277 3.2 9.7 0.00 0.00 0.00 22 1010.8
20260507010735 27 265 4.8 9.7 0.00 0.00 0.00 21 1010.8
20260507010235 27 232 6.4 11.3 0.00 0.00 0.00 21 1010.8
20260507005734 27 283 4.8 11.3 0.00 0.00 0.00 21 1010.8
20260507005234 28 244 4.8 12.9 0.00 0.00 0.00 21 1010.8
20260507004735 28 214 6.4 11.3 0.00 0.00 0.00 20 1010.8
20260507004234 28 178 6.4 11.3 0.00 0.00 0.00 21 1010.8
20260507003735 28 254 6.4 12.9 0.00 0.00 0.00 20 1010.8
20260507003234 28 296 4.8 12.9 0.00 0.00 0.00 20 1010.8
20260507002734 28 183 3.2 9.7 0.00 0.00 0.00 21 1010.8
20260507002235 28 259 3.2 9.7 0.00 0.00 0.00 20 1010.8
20260507001734 28 244 6.4 11.3 0.00 0.00 0.00 20 1010.8
20260507001234 28 281 6.4 14.5 0.00 0.00 0.00 20 1010.8
20260507000734 28 275 1.6 11.3 0.00 0.00 0.00 20 1010.8
20260507000234 28 224 3.2 11.3 0.00 0.00 0.00 20 1010.8
20260506235734 28 255 4.8 9.7 0.00 0.00 0.00 20 1010.8
20260506235235 28 300 6.4 16.1 0.00 0.00 0.00 20 1010.8
20260506234736 28 212 3.2 6.4 0.00 0.00 0.00 20 1010.8
20260506234234 28 330 6.4 14.5 0.00 0.00 0.00 21 1010.8
20260506233734 28 229 4.8 11.3 0.00 0.00 0.00 20 1010.8
20260506233238 28 191 1.6 8.0 0.00 0.00 0.00 20 1010.8
20260506232735 28 164 6.4 12.9 0.00 0.00 0.00 20 1010.8
20260506232235 28 229 8.0 12.9 0.00 0.00 0.00 21 1011.2
20260506231734 28 230 8.0 17.7 0.00 0.00 0.00 20 1010.8
20260506231234 28 237 8.0 17.7 0.00 0.00 0.00 21 1011.2
20260506230734 28 221 9.7 12.9 0.00 0.00 0.00 20 1011.2
20260506230234 28 262 3.2 8.0 0.00 0.00 0.00 20 1011.2
20260506225734 28 190 3.2 9.7 0.00 0.00 0.00 20 1011.2
20260506225235 28 218 9.7 16.1 0.00 0.00 0.00 20 1011.2
20260506224735 28 172 8.0 19.3 0.00 0.00 0.00 20 1011.2
20260506224234 28 303 8.0 14.5 0.00 0.00 0.00 20 1011.5
20260506223734 28 213 8.0 17.7 0.00 0.00 0.00 20 1011.5
20260506223234 29 262 6.4 14.5 0.00 0.00 0.00 20 1011.5
20260506222734 29 276 4.8 11.3 0.00 0.00 0.00 19 1011.5
20260506222234 28 213 3.2 9.7 0.00 0.00 0.00 20 1011.5
20260506221737 28 222 6.4 11.3 0.00 0.00 0.00 21 1011.9
20260506221235 28 322 3.2 9.7 0.00 0.00 0.00 20 1011.9
20260506220735 28 144 4.8 11.3 0.00 0.00 0.00 20 1011.9
20260506220234 28 281 4.8 11.3 0.00 0.00 0.00 20 1011.9
20260506215734 28 285 8.0 12.9 0.00 0.00 0.00 20 1011.9
20260506215234 28 322 6.4 12.9 0.00 0.00 0.00 20 1011.9
20260506214734 28 205 4.8 11.3 0.00 0.00 0.00 21 1012.2
20260506214234 28 117 3.2 4.8 0.00 0.00 0.00 21 1012.2
20260506213735 28 117 4.8 11.3 0.00 0.00 0.00 21 1012.2
20260506213234 27 268 4.8 11.3 0.00 0.00 0.00 22 1012.5
20260506212735 28 276 4.8 9.7 0.00 0.00 0.00 21 1012.5
20260506212235 27 271 4.8 12.9 0.00 0.00 0.00 21 1012.5
20260506211734 27 201 8.0 12.9 0.00 0.00 0.00 22 1012.5
20260506211234 27 358 9.7 17.7 0.00 0.00 0.00 22 1012.5
20260506210734 27 273 8.0 12.9 0.00 0.00 0.00 22 1012.5
20260506210234 28 352 3.2 9.7 0.00 0.00 0.00 21 1012.9
20260506205736 28 78 3.2 9.7 0.00 0.00 0.00 21 1012.9
20260506205235 27 278 4.8 11.3 0.00 0.00 0.00 22 1012.9
20260506204734 27 278 6.4 11.3 0.00 0.00 0.00 22 1013.2
20260506204235 26 274 6.4 12.9 0.00 0.00 0.00 23 1013.2
20260506203734 27 258 9.7 16.1 0.00 0.00 0.00 23 1013.2
20260506203234 27 245 6.4 12.9 0.00 0.00 0.00 22 1013.2
20260506202735 26 213 4.8 11.3 0.00 0.00 0.00 23 1013.2
20260506202234 26 45 6.4 12.9 0.00 0.00 0.00 23 1013.2
20260506201735 26 345 9.7 14.5 0.00 0.00 0.00 23 1013.2
20260506201235 27 279 8.0 14.5 0.00 0.00 0.00 23 1013.2
20260506200735 27 123 8.0 16.1 0.00 0.00 0.00 23 1013.5
20260506200235 27 197 3.2 9.7 0.00 0.00 0.00 24 1013.5
20260506195734 26 303 4.8 12.9 0.00 0.00 0.00 24 1013.5
20260506195236 26 255 6.4 14.5 0.00 0.00 0.00 24 1013.5
20260506194734 26 320 8.0 12.9 0.00 0.00 0.00 24 1013.5
20260506194235 26 336 6.4 14.5 0.00 0.00 0.00 24 1013.5
20260506193734 26 289 4.8 11.3 0.00 0.00 0.00 25 1013.5
20260506193236 26 216 8.0 16.1 0.00 0.00 0.00 25 1013.9
20260506192735 26 242 4.8 12.9 0.00 0.00 0.00 25 1013.9
20260506192236 26 235 6.4 17.7 0.00 0.00 0.00 25 1013.9
20260506191737 26 284 4.8 16.1 0.00 0.00 0.00 26 1013.9
20260506191235 26 268 8.0 16.1 0.00 0.00 0.00 25 1013.9
20260506190736 26 289 1.6 9.7 0.00 0.00 0.00 25 1013.9
20260506190234 25 245 4.8 11.3 0.00 0.00 0.00 26 1014.2
20260506185735 25 270 6.4 14.5 0.00 0.00 0.00 27 1014.2
20260506185235 25 297 8.0 14.5 0.00 0.00 0.00 26 1014.2
20260506184734 25 351 4.8 12.9 0.00 0.00 0.00 27 1014.2
20260506184235 25 356 4.8 16.1 0.00 0.00 0.00 27 1014.2
20260506183734 25 307 9.7 17.7 0.00 0.00 0.00 26 1014.2
20260506183235 26 281 1.6 6.4 0.00 0.00 0.00 25 1014.2
20260506182738 25 207 3.2 11.3 0.00 0.00 0.00 27 1014.6
20260506182234 24 203 4.8 12.9 0.00 0.00 0.00 26 1014.6
20260506181736 24 313 6.4 11.3 0.00 0.00 0.00 27 1014.6
20260506181235 24 216 8.0 17.7 0.00 0.00 0.00 27 1014.6
20260506180734 24 206 4.8 12.9 0.00 0.00 0.00 27 1014.6
20260506180234 24 294 6.4 16.1 0.00 0.00 0.00 28 1014.6
20260506175734 24 57 4.8 9.7 0.00 0.00 0.00 28 1014.6
20260506175234 24 234 4.8 12.9 0.00 0.00 0.00 29 1014.9
20260506174734 23 219 6.4 14.5 0.00 0.00 0.00 29 1014.9
20260506174235 24 162 6.4 14.5 0.00 0.00 0.00 29 1014.9
20260506173234 24 232 4.8 12.9 0.00 0.00 0.00 28 1014.6
20260506172734 24 198 3.2 8.0 0.00 0.00 0.00 29 1014.6